When you browse on this site, cookies collect data to enhance your experience and personalize the content and advertising you see.
Visit our Privacy Policy to learn more. By continuing to use the site, you agree to this use of cookies and data.
  • In Österreich
  • Länderverzeichnis
  • Für 7 Tage
  • Wassertemperatur
  • Satellitenkarten
  • Wetterkarte
  • News
  • Widgets
  • user-avatar
    Anmelden

    Stündliche Wetter Piastów

    Heute, 26 Mai, Sonntag

    Zeit Temperatur Niederschläge Wind Luftdruck Luftfeuchtigkeit
    00:00 +10°C° 0 mm 2 m/S 750 mmHg 91%
    01:00 +9°C° 0 mm 2 m/S 750 mmHg 91%
    02:00 +9°C° 0 mm 2 m/S 750 mmHg 92%
    03:00 +8°C° 0 mm 2 m/S 750 mmHg 92%
    04:00 +8°C° 0 mm 2 m/S 750 mmHg 93%
    05:00 +10°C° 0 mm 2 m/S 750 mmHg 87%
    06:00 +11°C° 0 mm 3 m/S 750 mmHg 82%
    07:00 +13°C° 0 mm 4 m/S 750 mmHg 76%
    08:00 +14°C° 0 mm 4 m/S 750 mmHg 73%
    09:00 +15°C° 0 mm 5 m/S 750 mmHg 69%
    10:00 +16°C° 0 mm 5 m/S 750 mmHg 65%
    11:00 +17°C° 0 mm 5 m/S 749 mmHg 64%
    12:00 +19°C° 0 mm 5 m/S 749 mmHg 62%
    13:00 +20°C° 0 mm 5 m/S 749 mmHg 60%
    14:00 +20°C° 0 mm 5 m/S 749 mmHg 60%
    15:00 +20°C° 0 mm 5 m/S 748 mmHg 61%
    16:00 +20°C° 0 mm 5 m/S 748 mmHg 61%
    17:00 +19°C° 0 mm 4 m/S 748 mmHg 66%
    18:00 +18°C° 0 mm 3 m/S 748 mmHg 70%
    19:00 +17°C° 0 mm 2 m/S 747 mmHg 75%
    20:00 +16°C° 0 mm 2 m/S 748 mmHg 76%
    21:00 +16°C° 0 mm 3 m/S 748 mmHg 78%
    22:00 +14°C° 0 mm 3 m/S 748 mmHg 79%
    23:00 +14°C° 0 mm 3 m/S 748 mmHg 81%

    Morgen, 27 Mai, Montag

    Zeit Temperatur Niederschläge Wind Luftdruck Luftfeuchtigkeit
    00:00 +13°C° 0 mm 4 m/S 748 mmHg 83%
    01:00 +13°C° 0 mm 4 m/S 747 mmHg 85%
    02:00 +13°C° 0 mm 3 m/S 747 mmHg 86%
    03:00 +13°C° 0 mm 3 m/S 747 mmHg 87%
    04:00 +12°C° 0 mm 3 m/S 747 mmHg 88%
    05:00 +14°C° 0 mm 4 m/S 747 mmHg 84%
    06:00 +17°C° 0 mm 4 m/S 747 mmHg 79%
    07:00 +19°C° 0 mm 5 m/S 747 mmHg 75%
    08:00 +21°C° 0 mm 5 m/S 747 mmHg 69%
    09:00 +22°C° 0 mm 5 m/S 746 mmHg 62%
    10:00 +24°C° 0 mm 6 m/S 746 mmHg 56%
    11:00 +24°C° 0 mm 6 m/S 746 mmHg 55%
    12:00 +26°C° 0 mm 6 m/S 746 mmHg 54%
    13:00 +26°C° 0 mm 6 m/S 746 mmHg 53%
    14:00 +26°C° 0.1 mm 5 m/S 746 mmHg 54%
    15:00 +26°C° 0.1 mm 5 m/S 746 mmHg 56%
    16:00 +26°C° 0.1 mm 4 m/S 745 mmHg 58%
    17:00 +23°C° 0.1 mm 4 m/S 746 mmHg 65%
    18:00 +22°C° 0.1 mm 3 m/S 746 mmHg 71%
    19:00 +20°C° 0.1 mm 2 m/S 746 mmHg 78%
    20:00 +20°C° 0.1 mm 2 m/S 746 mmHg 81%
    21:00 +20°C° 0.1 mm 1 m/S 746 mmHg 83%
    22:00 +19°C° 0.1 mm 1 m/S 746 mmHg 86%
    23:00 +18°C° 0 mm 1 m/S 746 mmHg 88%

    übermorgen, 28 Mai, Dienstag

    Zeit Temperatur Niederschläge Wind Luftdruck Luftfeuchtigkeit
    00:00 +18°C° 0 mm 1 m/S 746 mmHg 90%
    01:00 +17°C° 0 mm 2 m/S 745 mmHg 92%
    02:00 +17°C° 1.4 mm 2 m/S 745 mmHg 93%
    03:00 +17°C° 1.4 mm 2 m/S 745 mmHg 94%
    04:00 +16°C° 1.4 mm 2 m/S 744 mmHg 96%
    05:00 +17°C° 1.9 mm 3 m/S 744 mmHg 96%
    06:00 +17°C° 1.9 mm 3 m/S 743 mmHg 96%
    07:00 +17°C° 1.9 mm 3 m/S 743 mmHg 95%
    08:00 +19°C° 0.3 mm 4 m/S 743 mmHg 88%
    09:00 +21°C° 0.3 mm 5 m/S 743 mmHg 81%
    10:00 +23°C° 0.3 mm 6 m/S 742 mmHg 74%
    11:00 +23°C° 0.3 mm 6 m/S 742 mmHg 70%
    12:00 +24°C° 0.3 mm 6 m/S 742 mmHg 65%
    13:00 +26°C° 0.3 mm 6 m/S 742 mmHg 61%
    14:00 +25°C° 0.4 mm 5 m/S 741 mmHg 64%
    15:00 +25°C° 0.4 mm 4 m/S 741 mmHg 67%
    16:00 +23°C° 0.4 mm 4 m/S 741 mmHg 69%
    17:00 +22°C° 1.7 mm 4 m/S 741 mmHg 74%
    18:00 +21°C° 1.7 mm 3 m/S 741 mmHg 79%
    19:00 +19°C° 1.7 mm 3 m/S 741 mmHg 84%
    20:00 +18°C° 0.1 mm 3 m/S 741 mmHg 88%
    21:00 +17°C° 0.1 mm 3 m/S 742 mmHg 91%
    22:00 +16°C° 0.1 mm 3 m/S 742 mmHg 95%
    23:00 +14°C° 0 mm 4 m/S 742 mmHg 95%

    29 Mai, Mittwoch

    Zeit Temperatur Niederschläge Wind Luftdruck Luftfeuchtigkeit
    00:00 +13°C° 0 mm 4 m/S 742 mmHg 95%
    01:00 +12°C° 0 mm 5 m/S 743 mmHg 94%
    02:00 +10°C° 0.1 mm 5 m/S 743 mmHg 94%
    03:00 +10°C° 0.1 mm 5 m/S 743 mmHg 94%
    04:00 +9°C° 0.1 mm 5 m/S 744 mmHg 94%
    05:00 +9°C° 0 mm 5 m/S 744 mmHg 93%
    06:00 +9°C° 0 mm 5 m/S 745 mmHg 92%
    07:00 +10°C° 0 mm 5 m/S 745 mmHg 91%
    08:00 +12°C° 0 mm 5 m/S 746 mmHg 86%
    09:00 +13°C° 0 mm 4 m/S 746 mmHg 82%
    10:00 +14°C° 0 mm 4 m/S 746 mmHg 78%
    11:00 +15°C° 0 mm 4 m/S 747 mmHg 73%
    12:00 +17°C° 0 mm 4 m/S 747 mmHg 67%
    13:00 +18°C° 0 mm 4 m/S 747 mmHg 62%
    14:00 +18°C° 0 mm 4 m/S 747 mmHg 64%
    15:00 +18°C° 0 mm 4 m/S 747 mmHg 66%
    16:00 +18°C° 0 mm 4 m/S 747 mmHg 68%
    17:00 +15°C° 0.6 mm 4 m/S 748 mmHg 77%
    18:00 +14°C° 0.6 mm 4 m/S 748 mmHg 85%
    19:00 +13°C° 0.6 mm 4 m/S 748 mmHg 94%
    20:00 +12°C° 0.6 mm 3 m/S 749 mmHg 94%
    21:00 +12°C° 0.6 mm 3 m/S 749 mmHg 95%
    22:00 +12°C° 0.6 mm 3 m/S 750 mmHg 95%
    23:00 +13°C° 0.3 mm 2 m/S 750 mmHg 95%

    30 Mai, Donnerstag

    Zeit Temperatur Niederschläge Wind Luftdruck Luftfeuchtigkeit
    00:00 +13°C° 0.3 mm 2 m/S 750 mmHg 96%
    01:00 +13°C° 0.3 mm 2 m/S 751 mmHg 96%
    02:00 +12°C° 0.6 mm 3 m/S 751 mmHg 96%
    03:00 +11°C° 0.6 mm 4 m/S 751 mmHg 96%
    04:00 +11°C° 0.6 mm 4 m/S 752 mmHg 96%
    05:00 +10°C° 0.3 mm 5 m/S 752 mmHg 93%
    06:00 +9°C° 0.3 mm 5 m/S 753 mmHg 91%
    07:00 +9°C° 0.3 mm 5 m/S 753 mmHg 89%
    08:00 +10°C° 0 mm 5 m/S 754 mmHg 81%
    09:00 +13°C° 0 mm 5 m/S 754 mmHg 72%
    10:00 +14°C° 0 mm 5 m/S 755 mmHg 64%
    11:00 +15°C° 0 mm 5 m/S 755 mmHg 61%
    12:00 +15°C° 0 mm 5 m/S 755 mmHg 57%
    13:00 +17°C° 0 mm 4 m/S 755 mmHg 54%
    14:00 +17°C° 0 mm 4 m/S 755 mmHg 54%
    15:00 +17°C° 0 mm 4 m/S 755 mmHg 54%
    16:00 +17°C° 0 mm 4 m/S 755 mmHg 54%
    17:00 +16°C° 0 mm 3 m/S 755 mmHg 59%
    18:00 +15°C° 0 mm 2 m/S 755 mmHg 64%
    19:00 +14°C° 0 mm 1 m/S 755 mmHg 69%
    20:00 +13°C° 0 mm 1 m/S 756 mmHg 69%
    21:00 +12°C° 0 mm 1 m/S 756 mmHg 70%
    22:00 +10°C° 0 mm 2 m/S 756 mmHg 70%
    23:00 +10°C° 0 mm 2 m/S 756 mmHg 71%

    31 Mai, Freitag

    Zeit Temperatur Niederschläge Wind Luftdruck Luftfeuchtigkeit
    00:00 +10°C° 0 mm 3 m/S 756 mmHg 71%
    01:00 +10°C° 0 mm 3 m/S 755 mmHg 72%
    02:00 +10°C° 0 mm 4 m/S 755 mmHg 72%
    03:00 +10°C° 0 mm 4 m/S 755 mmHg 72%
    04:00 +9°C° 0 mm 5 m/S 754 mmHg 72%
    05:00 +10°C° 0 mm 5 m/S 754 mmHg 72%
    06:00 +13°C° 0 mm 6 m/S 754 mmHg 72%
    07:00 +14°C° 0 mm 6 m/S 754 mmHg 73%
    08:00 +16°C° 0.1 mm 6 m/S 753 mmHg 72%
    09:00 +17°C° 0.1 mm 6 m/S 753 mmHg 72%
    10:00 +18°C° 0.1 mm 7 m/S 753 mmHg 72%
    11:00 +17°C° 0.2 mm 6 m/S 753 mmHg 74%
    12:00 +17°C° 0.2 mm 6 m/S 754 mmHg 77%
    13:00 +17°C° 0.2 mm 6 m/S 754 mmHg 79%
    14:00 +15°C° 0.4 mm 6 m/S 754 mmHg 81%
    15:00 +13°C° 0.4 mm 5 m/S 755 mmHg 83%
    16:00 +12°C° 0.4 mm 5 m/S 756 mmHg 85%
    17:00 +12°C° 0 mm 4 m/S 756 mmHg 83%
    18:00 +13°C° 0 mm 2 m/S 757 mmHg 81%
    19:00 +13°C° 0 mm 1 m/S 758 mmHg 79%
    20:00 +12°C° 0 mm 2 m/S 758 mmHg 79%
    21:00 +9°C° 0 mm 2 m/S 759 mmHg 78%
    22:00 +8°C° 0 mm 3 m/S 760 mmHg 77%
    23:00 +7°C° 0 mm 2 m/S 760 mmHg 77%
    Mehr zeigen